Regional Weather Roundup
Issued by NWS

Home | Current Version | Previous Version | Text Only | Print | Product List | Glossary On
Versions: 1 2 3 4 5 6 7 8 9 10 11 12 13 14 15 16 17 18 19 20 21 22 23 24 25 26 27 28 29 30 31 32 33 34 35 36 37 38 39 40 41 42 43 44 45 46 47 48 49 50
000
ASUS43 KDMX 210707
RWRIA

WEATHER ROUNDUP FOR IOWA
NATIONAL WEATHER SERVICE DES MOINES IA
200 AM CDT TUE OCT 21 2014

NOTE: "FAIR" INDICATES FEW OR NO CLOUDS BELOW 12,000 FEET WITH NO
SIGNIFICANT WEATHER AND/OR OBSTRUCTIONS TO VISIBILITY.

* - THESE STATIONS ARE NOT NWS STATIONS...THUS NOT UNDER NWS
QUALITY CONTROL.  THEY ALSO DO NOT REPORT WEATHER SUCH
AS PRECIPITATION OR FOG.

IAZ001>003-012>014-020>022-031>034-043>046-210800-
   NORTHWEST IOWA

CITY           SKY/WX    TMP DP  RH WIND       PRES   REMARKS
CARROLL *      CLOUDY    37  36  93 CALM      30.08R
CHEROKEE *     CLEAR     37  36  93 CALM      30.08S
DENISON *      CLEAR     39  39 100 CALM      30.06S
LE MARS *      CLEAR     36  36 100 CALM      30.07S
ORANGE CITY *  CLEAR     48  37  66 E5        30.07S
SHELDON *      CLEAR     36  34  93 E3        30.07R
SIOUX CITY     CLEAR     38  35  89 CALM      30.07S
SPENCER        CLEAR     37  33  85 CALM      30.09R
STORM LAKE *   CLEAR     46  43  87 E5        30.09R
$$

IAZ055>058-069>071-079>083-090>094-210800-
   SOUTHWEST IOWA

CITY           SKY/WX    TMP DP  RH WIND       PRES   REMARKS
ATLANTIC *     CLEAR     39  37  93 N3        30.07S
AUDUBON *      CLEAR     37  34  87 CALM      30.09R
CLARINDA *     CLEAR     37  37 100 CALM      30.09S
COUNCIL BLFS * CLEAR     55  37  50 CALM      30.07R
CRESTON *      CLEAR     48  39  71 NW6       30.07S
HARLAN  *      CLEAR     39  39 100 CALM      30.10S
LAMONI         CLEAR     48  40  73 W5        30.07R
RED OAK *      CLEAR     39  37  93 CALM      30.08S
SHENANDOAH *   CLEAR     39  39 100 CALM      30.09R
$$

IAZ047>049-059>061-072>074-084-210800-
   CENTRAL IOWA

CITY           SKY/WX    TMP DP  RH WIND       PRES   REMARKS
AMES           CLEAR     40  37  89 NW3       30.07R
ANKENY *       CLEAR     41  41 100 N5        30.07R
CHARITON *     CLEAR     48  41  76 NW6       30.06R
DES MOINES     CLEAR     50  41  71 N3        30.06S
GRINNELL*      CLEAR     43  39  87 CALM      30.07R
KNOXVILLE *    CLEAR     46  39  76 NW5       30.05R
MARSHALLTOWN   CLEAR     40  37  89 CALM      30.06R
PELLA *        CLEAR     46  43  87 CALM      30.08R
PERRY *          N/A     39  39 100 NW5       30.07S
$$

IAZ004>006-015-016-023>025-035-036-210800-
   NORTH CENTRAL IOWA

CITY           SKY/WX    TMP DP  RH WIND       PRES   REMARKS
ALGONA *       CLEAR     43  37  81 CALM      30.09R
CLARION *      CLEAR     36  36 100 CALM      30.08S
ESTHERVILLE    CLEAR     37  33  85 N3        30.08S
FORT DODGE *   CLEAR     37  36  93 CALM      30.09R
MASON CITY     CLEAR     37  36  96 NE5       30.10R WCI  33
FOREST CITY *  CLEAR     41  41 100 CALM      30.09R
IOWA FALLS *     N/A     39  36  87 CALM      30.09R
$$

IAZ007>011-017>019-026>030-037>042-050>054-066-210800-
   NORTHEAST IOWA

CITY           SKY/WX    TMP DP  RH WIND       PRES   REMARKS
CEDAR RAPIDS   CLEAR     46  41  82 NE6       30.06R
CHARLES CITY * CLEAR     41  37  87 NE5       30.09R
CLINTON *      CLEAR     39  36  87 N7        30.08R WCI  34
DECORAH *      MOCLDY    41  39  93 CALM      30.08R
DUBUQUE        CLEAR     39  36  89 CALM      30.06R
MONTICELLO *   CLEAR     37  37 100 CALM      30.07R
OELWEIN *      CLEAR     43  39  87 NE6       30.08R
WATERLOO       CLEAR     38  35  89 CALM      30.07R
$$

IAZ064-065-067-068-078-210800-
   EAST CENTRAL IOWA

CITY           SKY/WX    TMP DP  RH WIND       PRES   REMARKS
DAVENPORT      CLEAR     38  36  92 CALM      30.06R
IOWA CITY      CLEAR     47  41  80 CALM      30.07R
MT. PLEASANT * CLEAR     43  39  87 N5        30.05R
MUSCATINE *    CLEAR     45  41  87 CALM      30.06R
QUAD CITIES    CLEAR     40  38  93 CALM      30.05R
$$

IAZ062-063-075>077-085>089-095>099-210800-
   SOUTHEAST IOWA

CITY           SKY/WX    TMP DP  RH WIND       PRES   REMARKS
BURLINGTON     CLEAR     50  43  77 E6        30.04R
FAIRFIELD *    CLEAR     43  39  87 N6        30.05R
FORT MADISON * CLEAR     48  43  81 CALM      30.05R
KEOKUK *       CLEAR     50  43  76 N5        30.03S
OSKALOOSA *      N/A     43  39  87 N6        30.06R
CENTERVILLE *  CLEAR     39  39 100 NW3       30.07S
OTTUMWA        CLEAR     43  39  86 NW5       30.05R
WASHINGTON *   CLEAR     46  43  87 NE7       30.05R
$$

ABBREVIATIONS USED IN REMARKS
   TC - TEMPERATURES IN CELSIUS
  WCI - WIND CHILL INDEX
   HX - HEAT INDEX
  VSB - VISIBILITY
$$



USA.gov is the U.S. government's official web portal to all federal, state and local government web resources and services.